Find Starlink 31229

NORAD ID: 58986 Int'l Des: 2024-031 Owner: SPXS Country: US Constellation: starlink operational
LEOCIRCULAR

現在のビュー

3D地球を読み込み中...

About Starlink 31229

Starlink 31229 (NORAD 58986) is a starlink constellation satellite (v2 mini) launched Feb 15, 2024 by SPXS of US. It operates in LEO, CIRCULAR orbit with a mass of 730.00 kg.

次回通過

Passes for default location (London). Set your location on the main map for personalized predictions.

高度履歴

Loading altitude history...

軌道要素

1 58986U 24031X 26230.49190601 .00000148 00000-0 15529-4 0 9998
2 58986 53.1580 263.8768 0001133 68.4589 291.6535 15.34386264141300
Epoch: Aug 18, 2026 • Age: 13 hours

現在のステータス

高度 463.5 km
遠地点 / 近地点 N/A
速度 7.64 km/s
衛星直下点 -0.58°S, 70.99°W
打ち上げ日 Feb 15, 2024
運用期間 2.5 years
タイプ internet

技術仕様

分類 Payload
質量 730.00 kg
乾燥質量 700.00 kg
総質量 730.00 kg
長さ 0.30 m
直径 4.10 m
スパン 29.00 m
形状 Box + pan
製造者 SPXS
バスタイプ Starlink V2M
フェーズステータス In Orbit
所有者/国 SPXS/US

Most Searched